Weather History for KBMI - February, 2012

Change the Weather History Date:

Sunday, February 19, 2012

  Actual Average Record
Temperature  
Mean Temperature 28 °F -  
Max Temperature 37 °F 21 °F 53 °F (2004)
Min Temperature 19 °F -14 °F -14 °F (1979)
Degree Days  
Heating Degree Days 37    
Moisture  
Dew Point 20 °F    
Average Humidity 77    
Maximum Humidity 100    
Minimum Humidity 45    
Precipitation  
Precipitation 0.00 in - - ()
Sea Level Pressure  
Sea Level Pressure 30.22 in    
Wind  
Wind Speed 9 mph (NE)    
Max Wind Speed 12 mph    
Max Gust Speed -    
Visibility 10 miles    
Events      
Averages and records for this station are not official NWS values.
T = Trace of Precipitation, MM = Missing Value Source: NWS Daily Summary

Daily Weather History Graph

Daily Weather History Graph

Search for Another Location

Airport or City:

Trip Planner

Search our weather history database for the weather conditions in past years. The results will help you decide how hot, cold, wet, or windy it might be!

Date:

Astronomy

Feb. 19, 2012 Rise Set
Actual Time 6:44 AM CST 5:35 PM CST
Civil Twilight 6:16 AM CST 6:02 PM CST
Nautical Twilight 5:45 AM CST 6:34 PM CST
Astronomical Twilight 5:13 AM CST 7:06 PM CST
Moon 5:05 AM CST (2/19) 3:36 PM CST (2/19)
Length of Visible Light 11h 46m
Length of Day
10h 50m
Waning Crescent, 5% of the Moon is Illuminated
Feb 19
Waning Crescent
Feb 21
New
Feb 29
First Quarter
Mar 8
Full
Mar 14
Last Quarter

Hourly Weather History & Observations

Time (CST) Temp. Windchill Dew Point Humidity Pressure Visibility Wind Dir Wind Speed Gust Speed Precip Events Conditions
12:56 AM 22.1 °F 11.3 °F 20.1 °F 92% 30.22 in 10.0 mi NE 10.4 mph - N/A   Clear
1:56 AM 21.0 °F 11.4 °F 19.0 °F 92% 30.21 in 10.0 mi NE 8.1 mph - N/A   Clear
2:56 AM 20.1 °F 9.5 °F 18.1 °F 92% 30.20 in 10.0 mi NE 9.2 mph - N/A   Clear
3:56 AM 20.1 °F 9.5 °F 19.0 °F 96% 30.20 in 10.0 mi NE 9.2 mph - N/A   Clear
4:56 AM 19.0 °F 9.0 °F 18.1 °F 96% 30.21 in 10.0 mi NE 8.1 mph - N/A   Clear
5:56 AM 19.0 °F 7.5 °F 19.0 °F 100% 30.22 in 10.0 mi NE 10.4 mph - N/A   Clear
6:56 AM 19.0 °F 9.0 °F 18.1 °F 96% 30.23 in 10.0 mi NE 8.1 mph - N/A   Clear
7:56 AM 22.1 °F 12.0 °F 20.1 °F 92% 30.24 in 10.0 mi NE 9.2 mph - N/A   Clear
8:56 AM 26.1 °F 15.6 °F 22.1 °F 85% 30.24 in 10.0 mi ENE 11.5 mph - N/A   Clear
9:56 AM 28.0 °F 19.3 °F 23.0 °F 81% 30.24 in 10.0 mi ENE 9.2 mph - N/A   Clear
10:56 AM 31.1 °F 22.4 °F 21.0 °F 66% 30.24 in 10.0 mi ENE 10.4 mph - N/A   Clear
12:56 PM 36.9 °F 30.1 °F 20.1 °F 51% 30.21 in 10.0 mi NE 9.2 mph - N/A   Clear
1:56 PM 36.9 °F 30.1 °F 19.0 °F 49% 30.19 in 10.0 mi NE 9.2 mph - N/A   Clear
2:56 PM 37.9 °F 31.5 °F 20.1 °F 49% 30.19 in 10.0 mi NNE 9.2 mph - N/A   Clear
3:56 PM 37.9 °F 30.9 °F 18.1 °F 45% 30.18 in 10.0 mi NE 10.4 mph - N/A   Clear
4:56 PM 36.0 °F 29.0 °F 20.1 °F 53% 30.18 in 10.0 mi ENE 9.2 mph - N/A   Clear
5:56 PM 31.1 °F 23.7 °F 20.1 °F 64% 30.21 in 10.0 mi NE 8.1 mph - N/A   Clear
6:56 PM 29.1 °F 22.1 °F 21.0 °F 72% 30.23 in 10.0 mi ENE 6.9 mph - N/A   Clear
7:56 PM 29.1 °F 25.4 °F 19.0 °F 66% 30.25 in 10.0 mi NNW 3.5 mph - N/A   Clear
8:56 PM 26.1 °F 18.4 °F 19.0 °F 75% 30.26 in 10.0 mi NE 6.9 mph - N/A   Clear
9:56 PM 24.1 °F 15.2 °F 19.0 °F 81% 30.25 in 10.0 mi East 8.1 mph - N/A   Clear
10:56 PM 24.1 °F 15.2 °F 19.0 °F 81% 30.26 in 10.0 mi ENE 8.1 mph - N/A   Clear
11:56 PM 21.0 °F 12.4 °F 19.0 °F 92% 30.23 in 10.0 mi East 6.9 mph - N/A   Clear